Location: Castillon
(43.0896°N, 0.2156°E)
Time: 15:32:50
(UTC+00:00)

Cosmos 1302 Rocket - Pass Details

Date: 16 June 2021
Orbit: 757 x 775 km, 74.0° (Epoch: 03 August)

Event Time Altitude Azimuth Distance (km) Brightness Sun altitude
Exits shadow 21:42:31 27° 152° (SSE) 1,439 4.8 -16.4°
Maximum altitude 21:44:43 41° 103° (ESE) 1,108 4.5 -16.6°
Drops below altitude 10° 21:49:37 10° 34° (NE) 2,314 6.8 -17.1°
Sets 21:52:06 0° 28° (NNE) 3,241 7.7 -17.3°
